Year,Month,Day,Hour,Minute,Value (Times are PST for windspeed in km/hr)
2009,03,29,00,00,20.30
2009,03,29,00,01,21.30
2009,03,29,00,02,24.60
2009,03,29,00,03,29.10
2009,03,29,00,04,26.60
2009,03,29,00,05,17.80
2009,03,29,00,06,21.20
2009,03,29,00,07,24.60
2009,03,29,00,08,18.50
2009,03,29,00,09,18.60
2009,03,29,00,10,23.30
2009,03,29,00,11,26.10
2009,03,29,00,12,16.60
2009,03,29,00,13,22.80
2009,03,29,00,14,29.00
2009,03,29,00,15,21.80
2009,03,29,00,16,21.30
2009,03,29,00,17,21.40
2009,03,29,00,18,22.70
2009,03,29,00,19,17.20
2009,03,29,00,20,30.00
2009,03,29,00,21,29.70
2009,03,29,00,22,29.40
2009,03,29,00,23,26.30
2009,03,29,00,24,28.00
2009,03,29,00,25,27.20
2009,03,29,00,26,23.50
2009,03,29,00,27,23.10
2009,03,29,00,28,25.80
2009,03,29,00,29,25.30
2009,03,29,00,30,23.70
2009,03,29,00,31,20.80
2009,03,29,00,32,23.40
2009,03,29,00,33,25.20
2009,03,29,00,34,31.90
2009,03,29,00,35,25.80
2009,03,29,00,36,28.10
2009,03,29,00,37,25.60
2009,03,29,00,38,24.00
2009,03,29,00,39,27.80
2009,03,29,00,40,26.70
2009,03,29,00,41,21.20
2009,03,29,00,42,26.40
2009,03,29,00,43,31.50
2009,03,29,00,44,26.80
2009,03,29,00,45,35.30
2009,03,29,00,46,31.90
2009,03,29,00,47,31.20
2009,03,29,00,48,24.50
2009,03,29,00,49,24.90
2009,03,29,00,50,23.80
2009,03,29,00,51,24.80
2009,03,29,00,52,24.90
2009,03,29,00,53,18.90
2009,03,29,00,54,29.70
2009,03,29,00,55,26.40
2009,03,29,00,56,25.00
2009,03,29,00,57,26.60
2009,03,29,00,58,30.40
2009,03,29,00,59,21.40
2009,03,29,01,00,28.50
2009,03,29,01,01,22.90
2009,03,29,01,02,27.30
2009,03,29,01,03,32.10
2009,03,29,01,04,22.70
2009,03,29,01,05,28.70
2009,03,29,01,06,33.10
2009,03,29,01,07,34.50
2009,03,29,01,08,34.60
2009,03,29,01,09,29.80
2009,03,29,01,10,22.40
2009,03,29,01,11,25.70
2009,03,29,01,12,21.90
2009,03,29,01,13,20.00
2009,03,29,01,14,20.50
2009,03,29,01,15,13.20
2009,03,29,01,16,33.60
2009,03,29,01,17,29.40
2009,03,29,01,18,28.40
2009,03,29,01,19,27.30
2009,03,29,01,20,25.90
2009,03,29,01,21,29.50
2009,03,29,01,22,22.80
2009,03,29,01,23,20.10
2009,03,29,01,24,32.70
2009,03,29,01,25,31.70
2009,03,29,01,26,22.00
2009,03,29,01,27,25.30
2009,03,29,01,28,21.90
2009,03,29,01,29,20.20
2009,03,29,01,30,18.20
2009,03,29,01,31,20.90
2009,03,29,01,32,32.50
2009,03,29,01,33,33.40
2009,03,29,01,34,23.60
2009,03,29,01,35,18.80
2009,03,29,01,36,25.80
2009,03,29,01,37,19.20
2009,03,29,01,38,21.90
2009,03,29,01,39,23.40
2009,03,29,01,40,25.00
2009,03,29,01,41,28.10
2009,03,29,01,42,23.80
2009,03,29,01,43,23.70
2009,03,29,01,44,22.20
2009,03,29,01,45,22.40
2009,03,29,01,46,30.40
2009,03,29,01,47,19.60
2009,03,29,01,48,21.50
2009,03,29,01,49,17.20
2009,03,29,01,50,16.30
2009,03,29,01,51,24.40
2009,03,29,01,52,25.20
2009,03,29,01,53,20.80
2009,03,29,01,54,19.00
2009,03,29,01,55,23.40
2009,03,29,01,56,22.30
2009,03,29,01,57,26.00
2009,03,29,01,58,27.10
2009,03,29,01,59,13.00
2009,03,29,02,00,21.30
2009,03,29,02,01,23.30
2009,03,29,02,02,22.30
2009,03,29,02,03,24.70
2009,03,29,02,04,29.30
2009,03,29,02,05,24.40
2009,03,29,02,06,23.50
2009,03,29,02,07,17.50
2009,03,29,02,08,14.00
2009,03,29,02,09,16.80
2009,03,29,02,10,17.30
2009,03,29,02,11,30.40
2009,03,29,02,12,25.40
2009,03,29,02,13,20.40
2009,03,29,02,14,24.80
2009,03,29,02,15,24.50
2009,03,29,02,16,22.10
2009,03,29,02,17,22.60
2009,03,29,02,18,22.00
2009,03,29,02,19,25.40
2009,03,29,02,20,21.30
2009,03,29,02,21,21.80
2009,03,29,02,22,31.00
2009,03,29,02,23,24.80
2009,03,29,02,24,21.90
2009,03,29,02,25,20.40
2009,03,29,02,26,21.50
2009,03,29,02,27,22.70
2009,03,29,02,28,25.10
2009,03,29,02,29,28.20
2009,03,29,02,30,26.10
2009,03,29,02,31,26.20
2009,03,29,02,32,23.40
2009,03,29,02,33,24.10
2009,03,29,02,34,18.80
2009,03,29,02,35,20.40
2009,03,29,02,36,19.50
2009,03,29,02,37,18.90
2009,03,29,02,38,31.00
2009,03,29,02,39,22.50
2009,03,29,02,40,16.40
2009,03,29,02,41,20.90
2009,03,29,02,42,16.20
2009,03,29,02,43,15.40
2009,03,29,02,44,16.10
2009,03,29,02,45,18.70
2009,03,29,02,46,24.00
2009,03,29,02,47,21.00
2009,03,29,02,48,14.60
2009,03,29,02,49,18.40
2009,03,29,02,50,14.90
2009,03,29,02,51,18.60
2009,03,29,02,52,19.00
2009,03,29,02,53,16.90
2009,03,29,02,54,12.80
2009,03,29,02,55,22.90
2009,03,29,02,56,25.60
2009,03,29,02,57,19.30
2009,03,29,02,58,24.60
2009,03,29,02,59,17.90
2009,03,29,03,00,20.80
2009,03,29,03,01,17.70
2009,03,29,03,02,18.50
2009,03,29,03,03,18.20
2009,03,29,03,04,19.60
2009,03,29,03,05,21.30
2009,03,29,03,06,29.00
2009,03,29,03,07,23.40
2009,03,29,03,08,24.50
2009,03,29,03,09,21.70
2009,03,29,03,10,21.80
2009,03,29,03,11,16.20
2009,03,29,03,12,17.50
2009,03,29,03,13,16.30
2009,03,29,03,14,22.60
2009,03,29,03,15,26.20
2009,03,29,03,16,20.80
2009,03,29,03,17,19.40
2009,03,29,03,18,18.60
2009,03,29,03,19,19.80
2009,03,29,03,20,16.30
2009,03,29,03,21,18.40
2009,03,29,03,22,20.80
2009,03,29,03,23,23.10
2009,03,29,03,24,18.80
2009,03,29,03,25,26.70
2009,03,29,03,26,21.80
2009,03,29,03,27,19.80
2009,03,29,03,28,23.70
2009,03,29,03,29,21.90
2009,03,29,03,30,18.30
2009,03,29,03,31,24.60
2009,03,29,03,32,22.40
2009,03,29,03,33,18.90
2009,03,29,03,34,22.20
2009,03,29,03,35,24.70
2009,03,29,03,36,24.30
2009,03,29,03,37,18.40
2009,03,29,03,38,17.10
2009,03,29,03,39,19.90
2009,03,29,03,40,29.80
2009,03,29,03,41,27.30
2009,03,29,03,42,28.40
2009,03,29,03,43,25.70
2009,03,29,03,44,14.60
2009,03,29,03,45,19.20
2009,03,29,03,46,19.00
2009,03,29,03,47,22.00
2009,03,29,03,48,21.10
2009,03,29,03,49,33.00
2009,03,29,03,50,20.20
2009,03,29,03,51,18.80
2009,03,29,03,52,22.40
2009,03,29,03,53,20.50
2009,03,29,03,54,18.90
2009,03,29,03,55,21.20
2009,03,29,03,56,19.30
2009,03,29,03,57,23.30
2009,03,29,03,58,22.40
2009,03,29,03,59,16.70
2009,03,29,04,00,24.30
2009,03,29,04,01,21.60
2009,03,29,04,02,16.60
2009,03,29,04,03,17.20
2009,03,29,04,04,19.60
2009,03,29,04,05,17.20
2009,03,29,04,06,22.50
2009,03,29,04,07,18.00
2009,03,29,04,08,20.30
2009,03,29,04,09,18.70
2009,03,29,04,10,17.00
2009,03,29,04,11,20.40
2009,03,29,04,12,19.20
2009,03,29,04,13,13.10
2009,03,29,04,14,17.50
2009,03,29,04,15,19.90
2009,03,29,04,16,22.90
2009,03,29,04,17,23.40
2009,03,29,04,18,28.50
2009,03,29,04,19,21.80
2009,03,29,04,20,20.40
2009,03,29,04,21,27.00
2009,03,29,04,22,30.60
2009,03,29,04,23,23.80
2009,03,29,04,24,28.10
2009,03,29,04,25,23.30
2009,03,29,04,26,29.60
2009,03,29,04,27,17.00
2009,03,29,04,28,22.50
2009,03,29,04,29,23.90
2009,03,29,04,30,19.10
2009,03,29,04,31,22.90
2009,03,29,04,32,21.30
2009,03,29,04,33,26.10
2009,03,29,04,34,23.60
2009,03,29,04,35,26.60
2009,03,29,04,36,21.80
2009,03,29,04,37,25.20
2009,03,29,04,38,24.00
2009,03,29,04,39,24.20
2009,03,29,04,40,26.40
2009,03,29,04,41,29.30
2009,03,29,04,42,27.80
2009,03,29,04,43,27.30
2009,03,29,04,44,23.20
2009,03,29,04,45,24.20
2009,03,29,04,46,28.20
2009,03,29,04,47,25.80
2009,03,29,04,48,21.50
2009,03,29,04,49,27.10
2009,03,29,04,50,24.10
2009,03,29,04,51,25.60
2009,03,29,04,52,25.50
2009,03,29,04,53,19.20
2009,03,29,04,54,20.80
2009,03,29,04,55,23.10
2009,03,29,04,56,23.90
2009,03,29,04,57,20.00
2009,03,29,04,58,24.50
2009,03,29,04,59,19.80
2009,03,29,05,00,23.80
2009,03,29,05,01,29.10
2009,03,29,05,02,31.90
2009,03,29,05,03,20.00
2009,03,29,05,04,18.30
2009,03,29,05,05,27.90
2009,03,29,05,06,21.50
2009,03,29,05,07,22.40
2009,03,29,05,08,20.00
2009,03,29,05,09,15.40
2009,03,29,05,10,23.10
2009,03,29,05,11,23.70
2009,03,29,05,12,27.40
2009,03,29,05,13,22.20
2009,03,29,05,14,20.80
2009,03,29,05,15,20.40
2009,03,29,05,16,19.80
2009,03,29,05,17,21.70
2009,03,29,05,18,22.70
2009,03,29,05,19,29.10
2009,03,29,05,20,21.90
2009,03,29,05,21,19.70
2009,03,29,05,22,23.90
2009,03,29,05,23,20.30
2009,03,29,05,24,27.70
2009,03,29,05,25,24.50
2009,03,29,05,26,21.60
2009,03,29,05,27,19.20
2009,03,29,05,28,17.00
2009,03,29,05,29,23.10
2009,03,29,05,30,22.20
2009,03,29,05,31,15.90
2009,03,29,05,32,25.30
2009,03,29,05,33,19.20
2009,03,29,05,34,24.60
2009,03,29,05,35,24.70
2009,03,29,05,36,18.80
2009,03,29,05,37,18.60
2009,03,29,05,38,18.50
2009,03,29,05,39,25.50
2009,03,29,05,40,22.40
2009,03,29,05,41,18.80
2009,03,29,05,42,24.10
2009,03,29,05,43,20.50
2009,03,29,05,44,20.70
2009,03,29,05,45,19.40
2009,03,29,05,46,16.50
2009,03,29,05,47,17.30
2009,03,29,05,48,23.40
2009,03,29,05,49,17.10
2009,03,29,05,50,19.50
2009,03,29,05,51,18.80
2009,03,29,05,52,19.40
2009,03,29,05,53,22.70
2009,03,29,05,54,20.80
2009,03,29,05,55,19.60
2009,03,29,05,56,22.70
2009,03,29,05,57,18.30
2009,03,29,05,58,19.10
2009,03,29,05,59,22.30
2009,03,29,06,00,14.60
2009,03,29,06,01,22.20
2009,03,29,06,02,15.30
2009,03,29,06,03,24.70
2009,03,29,06,04,21.60
2009,03,29,06,05,16.00
2009,03,29,06,06,20.70
2009,03,29,06,07,18.90
2009,03,29,06,08,20.00
2009,03,29,06,09,19.10
2009,03,29,06,10,18.20
2009,03,29,06,11,22.90
2009,03,29,06,12,19.80
2009,03,29,06,13,18.70
2009,03,29,06,14,13.30
2009,03,29,06,15,18.30
2009,03,29,06,16,18.20
2009,03,29,06,17,22.20
2009,03,29,06,18,24.10
2009,03,29,06,19,19.10
2009,03,29,06,20,18.00
2009,03,29,06,21,16.90
2009,03,29,06,22,11.70
2009,03,29,06,23,16.40
2009,03,29,06,24,18.70
2009,03,29,06,25,17.50
2009,03,29,06,26,18.30
2009,03,29,06,27,17.50
2009,03,29,06,28,21.50
2009,03,29,06,29,20.40
2009,03,29,06,30,11.70
2009,03,29,06,31,18.10
2009,03,29,06,32,20.40
2009,03,29,06,33,17.40
2009,03,29,06,34,16.50
2009,03,29,06,35,17.40
2009,03,29,06,36,16.50
2009,03,29,06,37,14.10
2009,03,29,06,38,16.10
2009,03,29,06,39,16.80
2009,03,29,06,40,25.40
2009,03,29,06,41,17.40
2009,03,29,06,42,12.90
2009,03,29,06,43,18.60
2009,03,29,06,44,17.20
2009,03,29,06,45,16.70
2009,03,29,06,46,23.00
2009,03,29,06,47,13.90
2009,03,29,06,48,13.00
2009,03,29,06,49,21.30
2009,03,29,06,50,17.70
2009,03,29,06,51,17.30
2009,03,29,06,52,20.50
2009,03,29,06,53,19.20
2009,03,29,06,54,17.20
2009,03,29,06,55,18.50
2009,03,29,06,56,17.80
2009,03,29,06,57,14.60
2009,03,29,06,58,22.40
2009,03,29,06,59,18.20
2009,03,29,07,00,16.40
2009,03,29,07,01,13.60
2009,03,29,07,02,17.60
2009,03,29,07,03,15.00
2009,03,29,07,04,16.20
2009,03,29,07,05,13.60
2009,03,29,07,06,9.90
2009,03,29,07,07,15.00
2009,03,29,07,08,19.70
2009,03,29,07,09,16.70
2009,03,29,07,10,14.60
2009,03,29,07,11,20.70
2009,03,29,07,12,27.20
2009,03,29,07,13,16.40
2009,03,29,07,14,13.30
2009,03,29,07,15,16.80
2009,03,29,07,16,20.90
2009,03,29,07,17,22.10
2009,03,29,07,18,15.00
2009,03,29,07,19,18.00
2009,03,29,07,20,18.90
2009,03,29,07,21,15.00
2009,03,29,07,22,15.20
2009,03,29,07,23,16.70
2009,03,29,07,24,17.50
2009,03,29,07,25,16.10
2009,03,29,07,26,11.40
2009,03,29,07,27,17.50
2009,03,29,07,28,15.80
2009,03,29,07,29,11.30
2009,03,29,07,30,18.70
2009,03,29,07,31,12.60
2009,03,29,07,32,13.30
2009,03,29,07,33,15.60
2009,03,29,07,34,12.90
2009,03,29,07,35,14.20
2009,03,29,07,36,8.50
2009,03,29,07,37,13.80
2009,03,29,07,38,15.60
2009,03,29,07,39,13.60
2009,03,29,07,40,13.00
2009,03,29,07,41,16.60
2009,03,29,07,42,18.50
2009,03,29,07,43,20.80
2009,03,29,07,44,13.50
2009,03,29,07,45,19.80
2009,03,29,07,46,13.80
2009,03,29,07,47,9.80
2009,03,29,07,48,15.60
2009,03,29,07,49,21.80
2009,03,29,07,50,22.40
2009,03,29,07,51,17.90
2009,03,29,07,52,9.70
2009,03,29,07,53,24.40
2009,03,29,07,54,16.30
2009,03,29,07,55,21.50
2009,03,29,07,56,18.30
2009,03,29,07,57,11.10
2009,03,29,07,58,19.60
2009,03,29,07,59,19.60
2009,03,29,08,00,19.50
2009,03,29,08,01,13.10
2009,03,29,08,02,17.10
2009,03,29,08,03,18.70
2009,03,29,08,04,15.40
2009,03,29,08,05,15.80
2009,03,29,08,06,15.90
2009,03,29,08,07,8.30
2009,03,29,08,08,20.00
2009,03,29,08,09,15.00
2009,03,29,08,10,19.50
2009,03,29,08,11,17.20
2009,03,29,08,12,16.50
2009,03,29,08,13,16.70
2009,03,29,08,14,18.70
2009,03,29,08,15,17.60
2009,03,29,08,16,16.30
2009,03,29,08,17,15.40
2009,03,29,08,18,20.80
2009,03,29,08,19,19.20
2009,03,29,08,20,13.40
2009,03,29,08,21,26.70
2009,03,29,08,22,17.00
2009,03,29,08,23,28.20
2009,03,29,08,24,21.30
2009,03,29,08,25,16.20
2009,03,29,08,26,26.60
2009,03,29,08,27,19.40
2009,03,29,08,28,16.60
2009,03,29,08,29,15.30
2009,03,29,08,30,14.10
2009,03,29,08,31,23.70
2009,03,29,08,32,22.30
2009,03,29,08,33,21.20
2009,03,29,08,34,23.20
2009,03,29,08,35,20.70
2009,03,29,08,36,22.90
2009,03,29,08,37,22.10
2009,03,29,08,38,21.60
2009,03,29,08,39,20.90
2009,03,29,08,40,19.00
2009,03,29,08,41,19.90
2009,03,29,08,42,19.10
2009,03,29,08,43,18.90
2009,03,29,08,44,22.50
2009,03,29,08,45,23.40
2009,03,29,08,46,25.40
2009,03,29,08,47,17.80
2009,03,29,08,48,20.40
2009,03,29,08,49,20.20
2009,03,29,08,50,22.30
2009,03,29,08,51,15.60
2009,03,29,08,52,14.30
2009,03,29,08,53,16.70
2009,03,29,08,54,21.60
2009,03,29,08,55,24.90
2009,03,29,08,56,20.80
2009,03,29,08,57,20.00
2009,03,29,08,58,18.90
2009,03,29,08,59,14.30
2009,03,29,09,00,17.10
2009,03,29,09,01,19.40
2009,03,29,09,02,21.50
2009,03,29,09,03,26.00
2009,03,29,09,04,20.60
2009,03,29,09,05,17.10
2009,03,29,09,06,19.50
2009,03,29,09,07,23.70
2009,03,29,09,08,23.50
2009,03,29,09,09,20.30
2009,03,29,09,10,21.40
2009,03,29,09,11,26.40
2009,03,29,09,12,19.90
2009,03,29,09,13,23.40
2009,03,29,09,14,16.60
2009,03,29,09,15,25.30
2009,03,29,09,16,27.00
2009,03,29,09,17,20.20
2009,03,29,09,18,21.40
2009,03,29,09,19,30.80
2009,03,29,09,20,20.70
2009,03,29,09,21,21.60
2009,03,29,09,22,21.10
2009,03,29,09,23,17.00
2009,03,29,09,24,18.30
2009,03,29,09,25,24.90
2009,03,29,09,26,18.70
2009,03,29,09,27,21.20
2009,03,29,09,28,19.10
2009,03,29,09,29,13.80
2009,03,29,09,30,20.70
2009,03,29,09,31,15.90
2009,03,29,09,32,21.20
2009,03,29,09,33,20.10
2009,03,29,09,34,22.50
2009,03,29,09,35,14.70
2009,03,29,09,36,13.40
2009,03,29,09,37,22.00
2009,03,29,09,38,13.00
2009,03,29,09,39,26.40
2009,03,29,09,40,14.40
2009,03,29,09,41,24.10
2009,03,29,09,42,18.30
2009,03,29,09,43,22.50
2009,03,29,09,44,15.90
2009,03,29,09,45,21.70
2009,03,29,09,46,22.00
2009,03,29,09,47,20.40
2009,03,29,09,48,24.60
2009,03,29,09,49,18.70
2009,03,29,09,50,18.90
2009,03,29,09,51,19.30
2009,03,29,09,52,22.00
2009,03,29,09,53,18.20
2009,03,29,09,54,22.50
2009,03,29,09,55,19.10
2009,03,29,09,56,23.20
2009,03,29,09,57,27.70
2009,03,29,09,58,24.30
2009,03,29,09,59,21.80
2009,03,29,10,00,22.70
2009,03,29,10,01,26.70
2009,03,29,10,02,18.90
2009,03,29,10,03,24.40
2009,03,29,10,04,14.50
2009,03,29,10,05,14.30
2009,03,29,10,06,14.20
2009,03,29,10,07,20.30
2009,03,29,10,08,22.10
2009,03,29,10,09,19.10
2009,03,29,10,10,24.80
2009,03,29,10,11,17.50
2009,03,29,10,12,22.10
2009,03,29,10,13,13.50
2009,03,29,10,14,14.10
2009,03,29,10,15,22.70
2009,03,29,10,16,18.20
2009,03,29,10,17,18.00
2009,03,29,10,18,16.40
2009,03,29,10,19,22.40
2009,03,29,10,20,14.30
2009,03,29,10,21,18.80
2009,03,29,10,22,18.30
2009,03,29,10,23,18.30
2009,03,29,10,24,22.60
2009,03,29,10,25,20.20
2009,03,29,10,26,16.80
2009,03,29,10,27,23.40
2009,03,29,10,28,22.40
2009,03,29,10,29,22.30
2009,03,29,10,30,18.30
2009,03,29,10,31,21.90
2009,03,29,10,32,19.50
2009,03,29,10,33,25.20
2009,03,29,10,34,21.10
2009,03,29,10,35,21.50
2009,03,29,10,36,21.90
2009,03,29,10,37,19.40
2009,03,29,10,38,22.00
2009,03,29,10,39,17.50
2009,03,29,10,40,16.70
2009,03,29,10,41,25.60
2009,03,29,10,42,25.80
2009,03,29,10,43,24.70
2009,03,29,10,44,19.10
2009,03,29,10,45,16.70
2009,03,29,10,46,20.20
2009,03,29,10,47,24.50
2009,03,29,10,48,17.50
2009,03,29,10,49,21.00
2009,03,29,10,50,25.50
2009,03,29,10,51,25.60
2009,03,29,10,52,21.60
2009,03,29,10,53,19.60
2009,03,29,10,54,22.00
2009,03,29,10,55,22.80
2009,03,29,10,56,24.40
2009,03,29,10,57,20.40
2009,03,29,10,58,23.10
2009,03,29,10,59,21.40
2009,03,29,11,00,16.20
2009,03,29,11,01,21.00
2009,03,29,11,02,17.60
2009,03,29,11,03,19.50
2009,03,29,11,04,19.60
2009,03,29,11,05,17.10
2009,03,29,11,06,18.30
2009,03,29,11,07,18.80
2009,03,29,11,08,15.90
2009,03,29,11,09,19.50
2009,03,29,11,10,18.30
2009,03,29,11,11,20.80
2009,03,29,11,12,21.80
2009,03,29,11,13,21.00
2009,03,29,11,14,19.90
2009,03,29,11,15,18.10
2009,03,29,11,16,23.80
2009,03,29,11,17,24.20
2009,03,29,11,18,17.90
2009,03,29,11,19,15.80
2009,03,29,11,20,18.30
2009,03,29,11,21,20.30
2009,03,29,11,22,19.20
2009,03,29,11,23,24.60
2009,03,29,11,24,20.50
2009,03,29,11,25,27.00
2009,03,29,11,26,13.80
2009,03,29,11,27,12.20
2009,03,29,11,28,19.00
2009,03,29,11,29,16.40
2009,03,29,11,30,17.00
2009,03,29,11,31,15.60
2009,03,29,11,32,22.30
2009,03,29,11,33,16.70
2009,03,29,11,34,19.40
2009,03,29,11,35,19.80
2009,03,29,11,36,15.70
2009,03,29,11,37,17.50
2009,03,29,11,38,17.70
2009,03,29,11,39,16.70
2009,03,29,11,40,14.90
2009,03,29,11,41,19.00
2009,03,29,11,42,17.20
2009,03,29,11,43,16.50
2009,03,29,11,44,14.50
2009,03,29,11,45,11.80
2009,03,29,11,46,13.30
2009,03,29,11,47,14.70
2009,03,29,11,48,13.00
2009,03,29,11,49,16.10
2009,03,29,11,50,12.60
2009,03,29,11,51,14.60
2009,03,29,11,52,11.50
2009,03,29,11,53,10.10
2009,03,29,11,54,16.90
2009,03,29,11,55,17.90
2009,03,29,11,56,19.10
2009,03,29,11,57,16.10
2009,03,29,11,58,16.50
2009,03,29,11,59,22.20
2009,03,29,12,00,18.30
2009,03,29,12,01,13.60
2009,03,29,12,02,22.30
2009,03,29,12,03,15.80
2009,03,29,12,04,10.70
2009,03,29,12,05,15.90
2009,03,29,12,06,17.60
2009,03,29,12,07,9.80
2009,03,29,12,08,13.90
2009,03,29,12,09,17.10
2009,03,29,12,10,24.90
2009,03,29,12,11,22.20
2009,03,29,12,12,16.40
2009,03,29,12,13,20.40
2009,03,29,12,14,14.70
2009,03,29,12,15,15.90
2009,03,29,12,16,17.90
2009,03,29,12,17,15.50
2009,03,29,12,18,20.20
2009,03,29,12,19,15.60
2009,03,29,12,20,16.20
2009,03,29,12,21,14.20
2009,03,29,12,22,12.00
2009,03,29,12,23,18.10
2009,03,29,12,24,11.70
2009,03,29,12,25,15.90
2009,03,29,12,26,13.40
2009,03,29,12,27,15.80
2009,03,29,12,28,13.20
2009,03,29,12,29,8.00
2009,03,29,12,30,8.60
2009,03,29,12,31,11.30
2009,03,29,12,32,8.00
2009,03,29,12,33,12.50
2009,03,29,12,34,15.50
2009,03,29,12,35,12.00
2009,03,29,12,36,13.10
2009,03,29,12,37,10.80
2009,03,29,12,38,8.80
2009,03,29,12,39,14.30
2009,03,29,12,40,14.90
2009,03,29,12,41,6.40
2009,03,29,12,42,7.80
2009,03,29,12,43,11.60
2009,03,29,12,44,12.20
2009,03,29,12,45,9.10
2009,03,29,12,46,7.70
2009,03,29,12,47,21.20
2009,03,29,12,48,13.00
2009,03,29,12,49,13.80
2009,03,29,12,50,11.50
2009,03,29,12,51,18.30
2009,03,29,12,52,15.00
2009,03,29,12,53,8.80
2009,03,29,12,54,16.40
2009,03,29,12,55,14.30
2009,03,29,12,56,8.10
2009,03,29,12,57,6.50
2009,03,29,12,58,11.40
2009,03,29,12,59,13.60
2009,03,29,13,00,11.20
2009,03,29,13,01,8.10
2009,03,29,13,02,8.70
2009,03,29,13,03,12.70
2009,03,29,13,04,10.70
2009,03,29,13,05,21.10
2009,03,29,13,06,6.50
2009,03,29,13,07,5.70
2009,03,29,13,08,5.90
2009,03,29,13,09,7.60
2009,03,29,13,10,12.20
2009,03,29,13,11,14.20
2009,03,29,13,12,9.90
2009,03,29,13,13,9.10
2009,03,29,13,14,14.40
2009,03,29,13,15,12.90
2009,03,29,13,16,8.70
2009,03,29,13,17,10.70
2009,03,29,13,18,12.50
2009,03,29,13,19,14.30
2009,03,29,13,20,9.50
2009,03,29,13,21,7.50
2009,03,29,13,22,15.80
2009,03,29,13,23,11.70
2009,03,29,13,24,14.60
2009,03,29,13,25,11.00
2009,03,29,13,26,12.60
2009,03,29,13,27,13.90
2009,03,29,13,28,12.90
2009,03,29,13,29,16.80
2009,03,29,13,30,14.10
2009,03,29,13,31,10.20
2009,03,29,13,32,11.10
2009,03,29,13,33,9.60
2009,03,29,13,34,7.50
2009,03,29,13,35,7.10
2009,03,29,13,36,12.10
2009,03,29,13,37,15.70
2009,03,29,13,38,14.50
2009,03,29,13,39,6.40
2009,03,29,13,40,10.30
2009,03,29,13,41,12.20
2009,03,29,13,42,12.60
2009,03,29,13,43,10.70
2009,03,29,13,44,8.90
2009,03,29,13,45,12.60
2009,03,29,13,46,8.30
2009,03,29,13,47,6.60
2009,03,29,13,48,5.10
2009,03,29,13,49,7.40
2009,03,29,13,50,6.20
2009,03,29,13,51,9.60
2009,03,29,13,52,8.90
2009,03,29,13,53,9.00
2009,03,29,13,54,15.60
2009,03,29,13,55,15.40
2009,03,29,13,56,10.50
2009,03,29,13,57,13.50
2009,03,29,13,58,12.10
2009,03,29,13,59,10.20
2009,03,29,14,00,8.30
2009,03,29,14,01,7.70
2009,03,29,14,02,5.00
2009,03,29,14,03,7.60
2009,03,29,14,04,9.60
2009,03,29,14,05,7.70
2009,03,29,14,06,10.20
2009,03,29,14,07,7.50
2009,03,29,14,08,5.70
2009,03,29,14,09,7.90
2009,03,29,14,10,6.00
2009,03,29,14,11,6.00
2009,03,29,14,12,5.10
2009,03,29,14,13,5.50
2009,03,29,14,14,10.90
2009,03,29,14,15,12.90
2009,03,29,14,16,4.50
2009,03,29,14,17,10.60
2009,03,29,14,18,8.50
2009,03,29,14,19,12.60
2009,03,29,14,20,7.60
2009,03,29,14,21,8.00
2009,03,29,14,22,6.80
2009,03,29,14,23,9.80
2009,03,29,14,24,6.40
2009,03,29,14,25,5.70
2009,03,29,14,26,7.40
2009,03,29,14,27,7.10
2009,03,29,14,28,4.20
2009,03,29,14,29,10.70
2009,03,29,14,30,9.40
2009,03,29,14,31,8.80
2009,03,29,14,32,6.70
2009,03,29,14,33,8.90
2009,03,29,14,34,10.30
2009,03,29,14,35,8.10
2009,03,29,14,36,10.50
2009,03,29,14,37,6.20
2009,03,29,14,38,6.70
2009,03,29,14,39,8.40
2009,03,29,14,40,6.60
2009,03,29,14,41,8.30
2009,03,29,14,42,6.70
2009,03,29,14,43,5.90
2009,03,29,14,44,5.60
2009,03,29,14,45,9.10
2009,03,29,14,46,11.30
2009,03,29,14,47,11.80
2009,03,29,14,48,8.70
2009,03,29,14,49,11.10
2009,03,29,14,50,8.40
2009,03,29,14,51,10.10
2009,03,29,14,52,11.40
2009,03,29,14,53,10.60
2009,03,29,14,54,10.50
2009,03,29,14,55,4.30
2009,03,29,14,56,8.60
2009,03,29,14,57,9.80
2009,03,29,14,58,7.80
2009,03,29,14,59,10.50
2009,03,29,15,00,10.20
2009,03,29,15,01,10.10
2009,03,29,15,02,9.00
2009,03,29,15,03,7.60
2009,03,29,15,04,7.60
2009,03,29,15,05,10.50
2009,03,29,15,06,6.10
2009,03,29,15,07,5.40
2009,03,29,15,08,14.80
2009,03,29,15,09,9.50
2009,03,29,15,10,9.20
2009,03,29,15,11,11.90
2009,03,29,15,12,9.30
2009,03,29,15,13,7.50
2009,03,29,15,14,4.10
2009,03,29,15,15,7.50
2009,03,29,15,16,6.00
2009,03,29,15,17,5.40
2009,03,29,15,18,6.60
2009,03,29,15,19,8.90
2009,03,29,15,20,10.90
2009,03,29,15,21,9.20
2009,03,29,15,22,7.20
2009,03,29,15,23,8.00
2009,03,29,15,24,8.00
2009,03,29,15,25,5.70
2009,03,29,15,26,2.10
2009,03,29,15,27,5.00
2009,03,29,15,28,12.00
2009,03,29,15,29,11.00
2009,03,29,15,30,7.90
2009,03,29,15,31,10.40
2009,03,29,15,32,8.10
2009,03,29,15,33,6.90
2009,03,29,15,34,10.50
2009,03,29,15,35,7.30
2009,03,29,15,36,4.70
2009,03,29,15,37,5.50
2009,03,29,15,38,9.50
2009,03,29,15,39,11.10
2009,03,29,15,40,10.50
2009,03,29,15,41,6.40
2009,03,29,15,42,5.70
2009,03,29,15,43,10.40
2009,03,29,15,44,6.20
2009,03,29,15,45,5.50
2009,03,29,15,46,2.30
2009,03,29,15,47,5.50
2009,03,29,15,48,6.90
2009,03,29,15,49,8.60
2009,03,29,15,50,10.00
2009,03,29,15,51,8.50
2009,03,29,15,52,10.10
2009,03,29,15,53,9.90
2009,03,29,15,54,13.00
2009,03,29,15,55,10.00
2009,03,29,15,56,6.30
2009,03,29,15,57,8.80
2009,03,29,15,58,12.00
2009,03,29,15,59,8.50
2009,03,29,16,00,5.50
2009,03,29,16,01,4.40
2009,03,29,16,02,12.80
2009,03,29,16,03,11.40
2009,03,29,16,04,9.70
2009,03,29,16,05,9.50
2009,03,29,16,06,9.60
2009,03,29,16,07,11.50
2009,03,29,16,08,7.60
2009,03,29,16,09,5.60
2009,03,29,16,10,12.00
2009,03,29,16,11,5.00
2009,03,29,16,12,8.60
2009,03,29,16,13,12.00
2009,03,29,16,14,14.30
2009,03,29,16,15,11.90
2009,03,29,16,16,9.50
2009,03,29,16,17,12.00
2009,03,29,16,18,10.40
2009,03,29,16,19,6.80
2009,03,29,16,20,11.80
2009,03,29,16,21,9.60
2009,03,29,16,22,11.80
2009,03,29,16,23,12.20
2009,03,29,16,24,8.10
2009,03,29,16,25,10.30
2009,03,29,16,26,10.80
2009,03,29,16,27,8.90
2009,03,29,16,28,13.00
2009,03,29,16,29,12.60
2009,03,29,16,30,9.30
2009,03,29,16,31,11.90
2009,03,29,16,32,10.30
2009,03,29,16,33,8.30
2009,03,29,16,34,10.00
2009,03,29,16,35,13.60
2009,03,29,16,36,12.80
2009,03,29,16,37,8.50
2009,03,29,16,38,5.60
2009,03,29,16,39,9.00
2009,03,29,16,40,11.20
2009,03,29,16,41,8.70
2009,03,29,16,42,10.20
2009,03,29,16,43,9.00
2009,03,29,16,44,8.80
2009,03,29,16,45,8.40
2009,03,29,16,46,12.00
2009,03,29,16,47,9.90
2009,03,29,16,48,8.40
2009,03,29,16,49,8.40
2009,03,29,16,50,10.60
2009,03,29,16,51,8.80
2009,03,29,16,52,9.10
2009,03,29,16,53,12.20
2009,03,29,16,54,11.30
2009,03,29,16,55,6.90
2009,03,29,16,56,11.00
2009,03,29,16,57,9.90
2009,03,29,16,58,6.60
2009,03,29,16,59,5.50
2009,03,29,17,00,3.90
2009,03,29,17,01,8.20
2009,03,29,17,02,11.40
2009,03,29,17,03,6.00
2009,03,29,17,04,8.00
2009,03,29,17,05,4.80
2009,03,29,17,06,6.70
2009,03,29,17,07,7.50
2009,03,29,17,08,10.40
2009,03,29,17,09,10.10
2009,03,29,17,10,8.00
2009,03,29,17,11,12.30
2009,03,29,17,12,7.60
2009,03,29,17,13,5.30
2009,03,29,17,14,3.80
2009,03,29,17,15,9.00
2009,03,29,17,16,10.30
2009,03,29,17,17,7.10
2009,03,29,17,18,9.00
2009,03,29,17,19,10.40
2009,03,29,17,20,7.90
2009,03,29,17,21,8.70
2009,03,29,17,22,12.30
2009,03,29,17,23,6.90
2009,03,29,17,24,8.00
2009,03,29,17,25,12.40
2009,03,29,17,26,12.80
2009,03,29,17,27,8.60